Temp
44 45 44 44 45 45 45 47 48 48 48 48 49 49 50 53 54 54 54 54 59 60 61 61 60 62 60 60 57 55 53 44 36 31 33 32 32 32 32 34 34 34 36
41 41 41 43 44 44 46 46 45 44 46 46 47 48 50 52 53 52 52 53 57 60 59 60 59 60 54 52 52 52 48 42 36 29 30 31 31 31 31 32 32 34 34
40 38 40 42 43 43 42 42 43 43 43 44 44 45 46 48 51 48 46 50 57 59 60 59 59 55 49 47 46 43 43 41 37 32 29 30 29 30 30 29 29 31 34
38 38 38 39 39 40 41 41 40 40 40 41 42 42 44 46 43 41 41 41 40 40 40 42 44 47 42 41 39 38 37 34 33 30 28 27 27 29 30 25 25 29 29
36 36 36 38 39 39 38 38 38 38 38 39 38 39 40 41 40 37 37 37 36 35 35 36 37 37 38 39 37 35 35 33 31 29 27 27 26 26 27 28 26 26 27
35 35 36 36 36 35 36 35 36 36 36 36 35 35 36 38 39 38 37 36 35 35 33 34 35 36 37 38 39 39 36 33 32 30 28 26 26 28 28 28 25 23 22
33 34 34 33 33 33 34 34 33 33 34 33 32 32 33 36 38 38 36 34 34 33 34 34 33 33 35 34 35 35 35 37 37 33 29 28 27 28 29 27 27 27 23
32 31 32 32 31 32 32 32 32 32 32 32 32 32 32 33 36 35 35 33 32 32 32 32 32 31 32 31 29 26 25 26 28 29 29 29 30 30 31 30 26 23 23
29 30 30 31 30 31 31 31 31 31 31 31 32 32 32 32 34 35 34 31 29 29 30 30 30 30 32 31 27 25 25 26 32 34 34 34 33 32 30 27 22 21 18
29 29 30 30 30 30 30 30 31 31 30 30 30 31 32 31 34 34 32 31 28 28 29 29 30 30 31 31 27 25 23 23 24 23 23 24 25 26 26 24 25 20 18
27 29 30 30 30 30 30 30 30 30 30 29 29 30 30 31 32 33 33 30 29 28 28 29 30 32 33 32 31 27 24 25 24 21 20 19 19 19 19 20 21 21 17
27 29 29 30 30 31 30 30 30 30 29 29 29 29 30 31 32 33 33 32 31 29 28 29 30 32 33 32 29 30 28 24 20 19 17 16 15 15 16 17 18 18 19
25 26 29 30 31 31 30 30 30 30 29 27 27 27 27 29 30 33 32 31 31 28 29 31 32 31 31 29 29 27 23 20 18 16 14 14 15 16 16 15 16 15 16
24 24 30 30 29 30 30 30 30 29 29 28 27 26 26 27 28 28 29 28 28 27 27 25 26 26 25 23 21 22 21 20 18 15 14 14 15 14 13 15 12 13 10
23 23 25 30 29 30 30 30 30 31 31 29 28 28 27 26 28 30 27 25 25 24 20 20 19 19 17 17 17 17 17 17 15 15 13 13 12 12 11 12 11 8 7
28 24 22 25 28 26 26 29 34 34 34 34 33 31 30 33 32 31 31 29 28 27 21 18 17 17 16 15 14 14 14 14 14 13 12 12 10 10 9 10 9 5 4
24 23 23 23 26 27 25 25 25 30 34 34 34 33 33 33 33 32 31 31 30 26 19 18 17 16 15 15 14 13 12 13 13 13 12 11 10 10 8 7 7 6 4
28 22 19 19 18 18 18 19 26 22 25 25 33 32 33 34 33 33 31 28 20 21 19 17 16 15 14 14 13 10 10 11 10 10 9 8 8 7 6 4 2 -2 -6
25 17 17 16 15 15 15 15 15 16 14 21 29 30 29 34 34 33 30 16 17 17 17 17 16 15 14 13 11 10 10 9 9 7 6 6 5 5 1 1 -0 -3 -5
16 16 17 15 12 14 14 13 13 16 16 12 26 27 24 21 19 18 14 11 12 12 13 15 14 14 13 12 10 9 8 7 6 5 4 3 2 3 -0 -3 -4 -8 -10
21 17 16 14 14 13 14 15 14 15 15 12 16 17 26 18 16 18 19 14 14 11 12 13 12 12 11 10 9 7 6 6 5 4 4 2 1 -1 -2 -2 -7 -10 -11
23 21 17 19 17 16 15 14 14 15 15 15 13 17 33 14 16 22 20 17 14 13 12 13 12 12 11 10 9 8 6 5 5 4 2 1 -1 -3 -4 -8 -11 -12 -14
25 22 19 19 20 18 18 16 17 15 13 14 17 16 12 22 27 29 28 26 20 13 13 14 12 9 8 9 10 9 7 6 6 5 2 1 -1 -5 -7 -11 -13 -15 -14
28 25 23 22 21 19 19 19 19 19 19 18 16 16 17 16 19 22 26 22 18 9 11 12 10 8 6 6 5 3 5 5 5 3 2 0 -4 -6 -11 -13 -14 -15 -15
29 27 25 23 21 20 19 18 18 16 16 17 20 18 14 14 14 27 23 20 14 10 9 6 5 5 4 3 3 1 6 5 2 1 -0 -3 -5 -8 -11 -15 -15 -15 -15
29 29 26 22 22 20 21 19 19 18 20 19 18 18 17 16 14 16 15 11 8 7 6 2 2 3 2 1 1 4 5 6 2 2 1 -0 -3 -9 -12 -12 -13 -15 -15
MSLP
1011.43 1010.70 1010.00 1009.28 1008.61 1007.78 1007.00 1006.19 1005.28 1004.48 1003.69 1003.11 1002.73 1002.65 1001.65 1000.64 999.80 999.04 998.54 997.84 996.88 997.31 998.66 999.52 1000.66 1001.76 1002.54 1003.43 1004.40 1005.71 1006.99 1008.55 1011.84 1015.27 1016.30 1017.76 1018.73 1019.61 1019.88 1020.63 1021.12 1021.44 1022.05
1011.77 1011.07 1009.99 1009.00 1008.21 1007.28 1006.33 1005.82 1005.47 1004.58 1003.56 1003.21 1002.32 1001.13 1000.51 999.22 998.18 997.91 997.59 996.39 996.07 996.19 997.24 998.58 999.69 1000.88 1001.92 1002.97 1004.13 1005.10 1006.44 1007.87 1010.17 1013.64 1016.24 1017.66 1018.59 1019.31 1019.99 1020.84 1021.57 1021.59 1022.38
1011.61 1010.87 1009.80 1008.81 1008.04 1007.25 1006.59 1005.88 1005.10 1004.30 1003.47 1002.51 1001.57 1000.73 999.48 998.65 997.87 997.12 996.97 995.66 994.72 995.27 996.32 997.58 998.64 1000.02 1001.67 1002.76 1003.93 1005.25 1006.64 1008.19 1009.92 1012.79 1015.15 1017.31 1018.98 1019.14 1020.12 1021.99 1021.42 1022.72 1022.89
1011.51 1010.69 1009.77 1008.91 1008.24 1007.35 1006.41 1005.64 1004.98 1004.07 1003.01 1001.88 1001.02 1000.19 999.11 997.78 997.00 996.78 995.87 995.22 995.34 995.81 996.63 997.52 998.87 999.79 1001.60 1002.83 1004.13 1005.58 1007.01 1008.58 1010.33 1012.86 1015.07 1016.96 1018.04 1020.01 1019.93 1021.44 1022.13 1022.93 1023.79
1011.40 1010.54 1009.73 1008.89 1007.96 1007.27 1006.47 1005.71 1004.78 1003.74 1002.70 1001.88 1001.03 1000.08 999.00 997.49 996.61 996.06 996.25 996.70 996.91 997.40 997.37 999.08 999.96 1000.86 1001.98 1003.09 1004.49 1006.36 1007.28 1009.08 1011.27 1013.32 1014.64 1016.24 1018.05 1019.30 1019.80 1020.84 1021.77 1023.04 1024.05
1011.24 1010.54 1009.77 1008.80 1007.94 1007.29 1006.56 1005.70 1004.53 1003.41 1002.44 1001.47 1000.81 999.53 997.79 997.58 996.55 996.52 997.38 998.12 998.03 997.40 998.86 1000.66 1001.17 1001.93 1003.16 1004.47 1004.79 1006.88 1008.05 1009.10 1010.95 1011.65 1014.19 1016.28 1017.59 1017.85 1019.58 1020.77 1021.40 1023.03 1023.78
1011.29 1010.52 1009.74 1008.82 1007.83 1007.05 1006.32 1005.50 1004.62 1003.43 1002.50 1001.87 1000.24 999.56 998.54 997.49 996.30 998.11 998.68 999.49 999.05 999.45 1000.14 1001.01 1002.58 1003.71 1004.32 1004.56 1006.37 1007.83 1009.23 1010.21 1011.59 1012.20 1014.25 1015.91 1016.65 1017.82 1019.89 1020.73 1021.51 1022.05 1023.14
1011.44 1010.66 1009.70 1008.76 1007.90 1007.07 1006.26 1005.49 1004.65 1003.82 1002.75 1001.49 1001.12 999.55 999.53 999.45 998.78 1000.08 1000.52 999.99 1000.60 1001.23 1002.12 1002.70 1003.80 1004.82 1005.55 1006.18 1008.02 1009.73 1011.01 1012.43 1013.10 1013.71 1014.80 1016.15 1017.15 1018.29 1019.57 1020.34 1021.34 1022.49 1023.57
1011.58 1010.74 1009.92 1009.04 1008.29 1007.44 1006.42 1005.66 1004.81 1004.12 1003.08 1002.69 1002.07 1001.80 1001.70 1001.42 1000.31 1001.74 1001.36 1000.88 1001.99 1003.29 1004.39 1005.19 1006.01 1006.56 1007.39 1008.16 1009.63 1010.80 1012.80 1014.12 1015.04 1015.51 1016.45 1017.39 1018.30 1019.46 1020.10 1020.75 1021.65 1022.46 1023.74
1011.82 1011.08 1010.44 1009.55 1008.79 1008.03 1007.19 1006.43 1005.50 1004.77 1004.36 1003.94 1003.37 1003.23 1002.77 1001.75 1002.50 1003.92 1002.56 1002.61 1002.93 1005.55 1006.60 1007.64 1008.69 1009.37 1010.02 1010.79 1011.44 1012.53 1013.99 1015.91 1016.20 1017.36 1018.64 1019.32 1020.27 1021.31 1021.82 1022.06 1022.27 1022.85 1023.70
1012.15 1011.39 1010.88 1010.12 1009.30 1008.80 1008.04 1007.21 1006.57 1006.01 1005.56 1005.24 1004.84 1004.71 1003.89 1005.49 1004.65 1004.68 1004.43 1004.13 1005.59 1007.79 1008.44 1009.56 1011.13 1011.90 1012.46 1012.82 1013.32 1013.88 1014.91 1016.62 1017.72 1018.43 1019.41 1020.74 1021.83 1022.48 1023.34 1023.32 1023.45 1023.64 1024.16
1012.38 1011.39 1011.39 1010.75 1009.90 1009.34 1008.84 1008.32 1007.68 1007.11 1006.71 1006.75 1006.34 1006.59 1006.47 1006.28 1005.34 1005.80 1006.13 1007.22 1009.11 1009.29 1010.43 1011.06 1012.76 1013.62 1014.03 1014.71 1015.13 1015.65 1016.71 1017.83 1018.88 1020.24 1021.02 1021.94 1022.90 1023.87 1024.22 1024.94 1025.01 1025.28 1025.36
1012.95 1011.69 1011.86 1011.42 1010.91 1010.13 1009.59 1009.19 1008.69 1008.19 1007.86 1007.86 1008.06 1008.37 1008.53 1007.92 1007.74 1008.54 1009.58 1010.36 1011.03 1011.80 1011.79 1012.28 1013.76 1014.59 1015.58 1016.37 1016.77 1017.42 1018.27 1018.84 1019.99 1021.45 1022.35 1023.17 1024.30 1024.49 1025.08 1025.64 1025.93 1026.37 1026.75
1013.49 1012.75 1012.13 1011.93 1011.67 1011.19 1010.56 1010.07 1009.60 1009.37 1009.28 1009.51 1009.68 1009.48 1009.50 1009.79 1010.14 1011.20 1011.89 1012.30 1013.14 1013.07 1013.00 1014.62 1014.87 1015.69 1016.66 1017.60 1018.27 1018.95 1019.32 1020.00 1021.22 1022.50 1023.62 1023.77 1024.41 1024.46 1025.08 1025.84 1026.07 1027.04 1027.50
1013.88 1013.45 1013.17 1012.75 1012.48 1012.09 1011.60 1011.27 1010.94 1010.69 1010.58 1010.68 1010.86 1011.11 1011.54 1011.56 1011.63 1012.23 1013.49 1014.25 1014.19 1014.44 1015.12 1015.97 1016.33 1017.16 1018.20 1019.14 1020.02 1020.67 1021.11 1021.52 1022.20 1023.11 1023.64 1023.92 1024.54 1024.85 1025.89 1026.28 1026.62 1027.14 1028.00
1014.08 1014.06 1013.62 1013.36 1013.48 1013.17 1012.85 1012.52 1012.14 1011.85 1011.61 1011.55 1011.60 1011.57 1011.91 1011.92 1012.91 1013.90 1014.68 1014.80 1015.04 1015.68 1016.15 1017.08 1017.93 1018.67 1019.83 1020.58 1021.33 1022.11 1022.04 1022.32 1023.11 1023.62 1024.03 1024.41 1025.11 1025.74 1026.45 1027.10 1027.50 1027.98 1028.68
1014.36 1014.25 1014.24 1014.11 1013.63 1013.51 1013.45 1013.50 1013.38 1013.14 1012.70 1012.68 1012.58 1012.57 1012.86 1013.34 1014.25 1014.54 1014.75 1015.04 1015.43 1015.71 1016.87 1017.50 1018.30 1019.21 1020.56 1021.17 1021.86 1021.99 1022.75 1023.11 1023.55 1024.15 1024.95 1025.47 1026.01 1026.48 1026.72 1027.65 1028.40 1028.88 1029.13
1014.35 1014.50 1014.51 1014.71 1014.60 1014.27 1014.11 1014.08 1014.16 1014.26 1014.19 1013.99 1013.68 1013.59 1013.82 1014.32 1014.63 1014.93 1015.50 1015.86 1016.64 1017.29 1017.79 1018.46 1019.14 1019.68 1020.59 1021.05 1021.59 1022.48 1022.94 1023.78 1024.37 1024.95 1025.09 1025.73 1026.24 1026.87 1027.53 1028.66 1029.09 1029.53 1029.97
1013.77 1014.10 1014.38 1014.66 1014.88 1014.96 1014.77 1014.59 1014.53 1014.71 1014.78 1014.78 1014.72 1014.75 1014.94 1015.44 1015.50 1015.67 1016.12 1017.02 1017.83 1017.81 1018.37 1019.11 1019.37 1020.20 1020.20 1020.53 1021.69 1022.60 1023.14 1023.98 1024.51 1025.18 1025.78 1026.55 1026.84 1027.08 1027.78 1029.02 1029.96 1030.24 1030.59
1013.31 1013.61 1013.90 1014.27 1014.63 1014.96 1015.16 1015.12 1015.10 1015.19 1015.20 1015.26 1015.35 1015.43 1015.53 1015.87 1016.15 1016.72 1017.47 1017.69 1018.14 1018.69 1019.16 1018.84 1019.51 1019.82 1020.40 1021.53 1021.89 1022.74 1023.73 1024.34 1025.10 1025.81 1026.26 1026.60 1027.01 1027.68 1028.60 1029.90 1030.42 1030.52 1030.92
1012.50 1013.12 1013.40 1013.81 1014.15 1014.55 1014.69 1014.86 1015.05 1015.27 1015.53 1015.57 1015.52 1015.54 1015.52 1016.01 1016.10 1016.52 1017.02 1017.31 1017.91 1018.60 1018.72 1018.98 1019.54 1020.06 1020.80 1021.18 1021.92 1022.68 1023.47 1024.05 1024.57 1025.48 1026.16 1026.62 1026.92 1027.78 1028.52 1029.68 1029.97 1030.34 1030.83
1011.55 1012.15 1012.85 1013.24 1013.59 1013.94 1014.18 1014.44 1014.66 1014.88 1015.11 1015.31 1015.52 1015.55 1015.27 1016.18 1016.47 1016.49 1016.82 1017.19 1017.50 1018.11 1018.67 1019.11 1019.80 1020.21 1020.54 1021.06 1021.62 1022.85 1023.15 1023.63 1024.58 1025.80 1026.27 1026.52 1026.97 1027.95 1029.02 1029.50 1029.73 1030.57 1030.80
1010.59 1011.38 1012.03 1012.55 1012.93 1013.24 1013.55 1013.72 1013.91 1014.23 1014.56 1014.77 1014.92 1015.11 1015.21 1015.53 1015.76 1015.83 1016.29 1016.94 1017.66 1018.32 1018.67 1018.99 1019.39 1020.03 1020.31 1020.66 1021.38 1021.90 1022.58 1023.61 1024.26 1024.78 1025.35 1025.97 1027.07 1028.32 1028.75 1029.10 1029.72 1030.47 1030.94
1009.84 1010.49 1011.14 1011.80 1012.37 1012.82 1013.20 1013.49 1013.64 1013.84 1014.08 1014.34 1014.59 1014.83 1015.08 1015.40 1015.50 1015.66 1016.12 1016.92 1017.79 1018.41 1018.43 1018.67 1019.23 1019.75 1020.40 1021.08 1021.80 1022.31 1022.70 1023.44 1024.21 1024.88 1025.32 1026.48 1027.74 1028.29 1028.64 1029.38 1030.09 1030.48 1031.14
1009.07 1009.49 1010.03 1010.74 1011.48 1012.01 1012.45 1012.84 1013.29 1013.66 1014.00 1014.26 1014.49 1014.77 1014.96 1014.97 1015.09 1015.20 1015.78 1016.42 1017.18 1018.04 1018.52 1019.08 1019.60 1020.28 1020.90 1021.47 1022.05 1022.74 1023.24 1023.87 1024.43 1025.00 1025.85 1026.76 1027.63 1028.48 1029.12 1029.78 1030.32 1030.82 1031.04
1008.51 1009.04 1009.48 1009.96 1010.55 1011.23 1011.81 1012.25 1012.59 1012.94 1013.24 1013.58 1013.91 1014.19 1014.40 1014.68 1014.86 1015.09 1015.56 1016.26 1017.12 1018.08 1018.95 1019.69 1020.25 1020.74 1021.23 1021.68 1022.23 1022.70 1023.24 1023.88 1024.62 1025.28 1025.90 1026.77 1027.62 1028.48 1028.94 1028.93 1029.42 1029.90 1030.24
Wind_Speed
15 16 16 15 16 15 13 14 16 14 14 16 16 16 17 17 17 15 13 13 19 19 19 19 20 18 13 12 9 10 9 6 9 4 5 12 11 10 8 6 7 7 8
14 17 17 15 16 16 15 15 16 18 17 16 18 16 16 16 18 12 14 12 18 24 21 20 19 14 12 11 9 11 9 6 8 18 13 9 11 11 8 9 6 5 7
14 15 16 15 15 14 15 16 17 15 15 16 17 15 14 17 17 8 9 15 15 19 20 21 20 16 12 9 9 9 9 9 13 12 15 10 7 10 8 7 9 6 7
14 14 15 14 14 15 15 16 16 15 16 15 15 14 15 13 4 4 3 6 12 11 13 13 9 11 13 13 12 13 14 15 16 17 13 13 10 7 8 9 8 4 5
14 13 14 15 14 15 15 15 15 15 14 13 12 12 9 6 4 5 8 9 10 17 19 17 17 20 23 19 13 13 18 16 14 14 13 12 11 10 9 5 9 7 4
13 13 14 14 14 13 13 14 14 13 12 11 8 9 8 4 12 15 12 10 12 20 22 21 20 26 28 30 29 24 17 16 17 14 13 12 10 9 7 7 10 7 4
12 12 13 13 14 13 12 13 12 11 10 8 5 5 4 4 20 21 19 10 14 16 18 19 17 15 21 24 31 31 27 25 16 14 15 10 11 9 10 10 8 5 4
11 12 12 13 13 12 11 11 10 8 7 8 9 9 8 9 24 24 23 17 17 17 18 17 18 18 18 22 21 20 19 15 13 11 13 11 11 9 8 8 9 10 7
13 13 13 14 14 11 10 9 8 8 10 10 10 10 8 11 26 21 20 20 21 20 18 17 17 20 28 30 21 23 21 18 24 29 26 25 23 18 12 8 8 7 3
11 12 13 12 11 11 10 9 8 7 10 9 14 14 13 16 29 22 18 15 22 16 17 19 25 20 28 27 20 19 19 15 16 17 14 18 18 17 17 9 3 4 5
8 9 11 11 11 10 8 8 7 9 11 12 15 16 18 14 21 29 28 17 15 14 13 14 12 25 24 24 22 14 17 15 18 13 12 10 10 10 8 9 9 6 5
7 9 10 10 8 7 8 8 9 9 11 12 14 13 13 16 26 31 33 30 22 16 14 13 15 27 28 27 20 28 26 17 10 9 9 9 8 8 8 8 10 10 11
6 8 9 8 8 9 8 7 7 10 10 10 10 10 10 11 16 33 31 30 27 16 13 25 31 30 29 23 26 23 14 9 9 9 9 9 7 7 7 7 9 11 10
7 5 8 8 8 8 6 7 7 7 7 8 8 9 10 10 12 11 11 13 20 16 19 14 21 22 22 16 12 12 9 8 8 9 8 7 6 6 7 4 5 5 5
5 4 5 7 7 7 9 7 7 9 7 7 7 7 8 9 9 14 11 7 9 14 12 9 9 9 9 9 8 8 7 7 8 7 7 7 6 7 6 4 3 3 4
4 4 2 2 4 4 3 6 15 15 16 17 16 12 9 17 20 22 22 22 21 16 7 8 8 8 8 7 7 6 6 7 6 6 6 6 6 6 6 4 4 4 4
3 3 4 4 3 3 3 4 4 9 17 15 17 18 17 17 18 21 19 18 15 12 7 7 8 7 6 6 6 5 5 5 6 6 6 6 6 6 6 5 3 3 3
3 3 1 1 2 2 2 3 3 2 4 3 10 12 15 16 19 19 16 11 5 5 5 6 7 7 6 6 6 6 6 6 5 5 5 5 5 6 6 5 3 3 2
5 3 4 3 2 2 2 3 3 4 3 3 5 8 7 13 15 16 10 3 4 4 4 5 6 5 6 6 6 6 6 6 6 6 5 5 5 6 6 5 4 4 4
4 5 4 4 3 3 2 2 2 3 4 3 6 5 2 4 2 2 2 2 4 2 3 5 4 5 6 6 6 6 6 6 6 5 4 5 4 5 5 4 3 3 2
6 5 5 3 3 3 3 4 4 4 4 3 3 4 10 5 5 4 5 3 4 3 3 4 4 5 5 7 7 7 7 6 6 6 6 6 6 6 5 4 4 4 3
6 6 5 5 4 4 4 4 3 4 5 5 3 4 15 3 3 4 4 3 3 4 4 5 5 5 6 8 8 8 8 8 7 7 7 6 6 5 4 4 3 3 3
7 6 6 4 4 5 4 3 4 4 3 4 4 4 3 5 6 5 4 4 5 4 4 5 6 5 5 6 7 8 10 10 9 9 9 8 6 5 5 4 4 3 3
8 8 7 6 5 4 4 5 4 5 5 4 3 2 3 3 4 4 4 6 6 4 5 6 6 8 7 6 5 4 5 6 7 7 9 8 6 5 4 4 3 3 3
8 8 8 8 7 7 5 5 4 3 3 3 4 3 3 3 3 5 5 5 6 5 4 4 4 7 8 9 8 8 9 11 8 8 5 6 7 7 4 3 3 1 1
9 9 7 5 6 6 6 5 5 5 6 5 4 5 5 5 4 3 5 5 4 4 5 4 5 8 10 8 10 12 12 13 10 10 7 7 7 5 3 5 5 3 2
Wind_Direction
319 320 312 305 301 290 286 285 288 290 292 287 282 277 281 260 262 262 267 306 207 186 191 193 196 194 194 192 173 178 173 127 123 93 109 139 134 136 128 111 108 93 98
334 317 307 306 304 296 296 302 301 294 293 288 280 278 279 269 274 270 281 280 244 193 189 191 196 195 172 171 170 162 148 127 123 138 140 139 129 126 121 119 110 94 105
324 321 315 311 305 317 310 300 298 293 291 287 287 281 281 274 260 262 268 269 226 192 188 191 189 176 166 156 143 131 127 116 121 134 132 125 120 121 117 97 97 78 101
319 318 316 316 310 304 303 304 304 300 294 292 287 285 283 252 224 255 34 33 88 80 85 91 112 143 140 130 123 121 119 118 120 123 124 122 124 137 115 122 106 104 98
314 313 311 308 307 311 309 305 306 301 296 291 292 283 281 267 166 105 83 93 113 103 86 81 92 98 98 107 111 113 118 117 121 123 116 124 134 146 141 137 131 120 97
311 314 313 314 314 313 311 310 309 309 306 301 290 311 310 309 112 105 99 105 98 107 106 99 96 96 98 96 99 101 105 123 127 119 133 142 144 129 127 153 133 146 140
322 323 320 317 314 317 320 319 320 318 313 286 353 316 353 65 98 101 98 101 97 96 102 106 104 99 100 96 87 85 84 89 107 121 128 132 127 134 148 143 153 115 104
330 327 323 321 320 326 330 329 329 330 338 6 3 18 46 75 96 101 99 89 80 76 81 87 90 93 94 95 94 85 76 71 76 88 96 101 104 106 118 126 119 107 95
336 332 330 327 330 333 335 336 350 0 21 27 28 34 51 78 86 91 100 88 80 69 72 76 84 87 93 96 95 93 88 84 85 91 93 91 93 97 100 116 123 125 100
337 340 329 331 339 343 342 352 2 24 43 44 47 39 45 66 79 74 77 88 85 81 75 74 79 93 97 101 101 108 100 98 97 91 84 74 68 71 65 48 74 94 109
320 346 336 346 343 347 353 5 18 46 50 48 55 51 52 58 74 76 71 74 78 87 79 80 82 91 93 92 95 95 104 112 99 92 89 81 76 69 60 54 52 61 96
318 8 349 351 347 351 360 17 31 50 58 58 63 62 56 58 65 69 75 77 81 85 83 84 83 91 90 90 89 99 101 95 90 87 85 81 78 76 68 65 66 66 66
342 358 5 5 3 356 2 24 42 41 52 51 55 63 60 55 64 72 78 83 84 84 95 100 97 92 90 86 90 91 86 86 88 88 86 80 86 96 97 80 78 73 72
333 4 4 16 18 15 18 18 35 44 55 64 68 65 62 59 70 75 74 78 80 82 82 89 94 92 86 82 75 71 72 77 92 99 109 104 101 88 83 86 85 101 80
338 1 9 9 14 21 35 29 44 47 60 78 70 81 90 82 79 90 95 98 93 93 92 92 92 83 80 77 73 75 83 90 98 109 111 107 96 92 84 71 70 59 89
14 342 5 60 12 1 23 62 60 64 67 77 86 92 87 96 102 109 112 109 108 105 84 87 79 84 90 94 92 92 81 91 93 101 99 105 107 110 106 84 73 86 102
36 350 344 358 37 32 16 42 60 52 64 74 84 90 97 105 114 116 113 112 110 108 106 105 111 105 114 119 123 107 107 97 102 101 114 112 112 114 114 101 87 98 75
229 226 229 316 348 39 56 64 78 38 69 37 86 105 110 124 132 127 108 91 81 72 104 118 124 130 133 126 117 122 118 122 118 122 109 110 119 123 114 105 87 94 81
204 204 174 156 134 164 123 75 86 82 71 78 100 85 107 137 140 136 111 114 136 120 115 134 130 139 129 120 121 123 126 129 125 123 120 132 126 120 101 102 111 107 110
194 188 173 160 160 153 144 126 111 125 140 147 144 146 122 71 81 72 81 104 100 99 161 133 135 128 124 126 120 124 121 126 131 126 123 114 108 114 122 128 144 119 114
171 177 183 159 163 176 168 163 168 153 160 168 185 190 173 157 173 164 156 138 145 159 141 129 116 118 130 137 138 142 147 147 141 137 143 143 135 131 132 136 132 123 120
171 167 178 184 176 171 185 179 168 165 170 168 194 184 187 143 160 164 161 163 157 157 154 152 156 154 154 156 152 158 157 152 149 156 149 141 128 117 131 132 123 144 124
168 169 173 182 178 173 183 190 178 175 182 182 171 171 168 171 189 194 178 148 149 148 148 148 152 156 156 151 161 162 160 168 165 154 146 140 134 148 152 138 133 94 95
182 180 177 179 179 182 185 188 187 190 187 186 179 175 177 175 171 156 153 140 149 163 162 156 157 154 146 143 138 123 117 128 134 139 132 135 143 135 99 99 123 153 157
190 181 179 177 177 186 178 182 181 163 169 177 186 180 187 191 193 186 144 148 146 151 143 123 119 142 135 123 119 116 128 121 114 114 107 114 128 135 128 126 137 144 157
193 193 183 163 170 172 182 181 180 181 191 187 188 192 189 190 189 148 144 135 124 114 111 93 110 118 125 121 126 124 127 124 121 124 126 135 142 141 143 145 144 148 183